ARABSAT-7B (BADR-8)

Last updated on Thu Nov 21 2024 00:02:45 GMT+0000 (Coordinated Universal Time)

1 56757U 23075A 24324.58573745 .00000146 00000+0 00000+0 0 9995 2 56757 0.0768 25.2622 0002921 297.8428 332.8643 1.00270762 5375
UTC large
Height (km)
Speed (km/s)
/
Latitude / Longitude
Inclination (degrees)
Orbital Period (minutes)
Azimuth
Elevation
Range (km)
Doppler Factor

Next 0 passes for location: London (51.5072 / 0.1276)

Sorry there are no passes over London.